| time (UTC) | temp F | wind direction | speed knots | gust knots | rain 1hr in | rain 24hr in | rain mn in | humidity % | barometer mb |
| 20260902124211 | 59 | 151 | 2.6 | 7.8 | 0.00 | 0.14 | 0.14 | 96 | 1017.4 |
| 20260902123503 | 59 | 147 | 2.6 | 9.6 | 0.00 | 0.14 | 0.14 | 96 | 1017.4 |
| 20260902123003 | 59 | 143 | 2.6 | 9.6 | 0.00 | 0.14 | 0.14 | 96 | 1017.4 |
| 20260902122503 | 59 | 142 | 3.5 | 9.6 | 0.00 | 0.14 | 0.14 | 96 | 1017.4 |
| 20260902122211 | 59 | 143 | 4.3 | 9.6 | 0.00 | 0.14 | 0.14 | 95 | 1017.4 |
| 20260902121710 | 59 | 143 | 3.5 | 7.8 | 0.00 | 0.14 | 0.14 | 95 | 1017.4 |
| 20260902121003 | 59 | 155 | 2.6 | 6.1 | 0.00 | 0.14 | 0.14 | 95 | 1017.4 |
| 20260902120503 | 59 | 156 | 2.6 | 7.0 | 0.00 | 0.14 | 0.14 | 94 | 1017.4 |
| 20260902120004 | 59 | 158 | 2.6 | 7.0 | 0.00 | 0.14 | 0.14 | 93 | 1017.4 |
| 20260902115711 | 59 | 152 | 1.7 | 6.1 | 0.00 | 0.14 | 0.14 | 93 | 1017.4 |
| 20260902115003 | 59 | 157 | 1.7 | 6.1 | 0.00 | 0.14 | 0.14 | 94 | 1017.4 |
| 20260902114711 | 59 | 160 | 1.7 | 6.1 | 0.00 | 0.14 | 0.14 | 94 | 1017.4 |
| 20260902114211 | 59 | 159 | 1.7 | 4.3 | 0.00 | 0.14 | 0.14 | 94 | 1017.4 |
| 20260902113503 | 59 | 183 | 1.7 | 4.3 | 0.00 | 0.14 | 0.14 | 94 | 1017.4 |
| 20260902113003 | 59 | 182 | 2.6 | 7.0 | 0.00 | 0.14 | 0.14 | 94 | 1017.4 |
| 20260902112711 | 59 | 175 | 2.6 | 7.0 | 0.00 | 0.14 | 0.14 | 94 | 1017.4 |
| 20260902112210 | 60 | 180 | 2.6 | 7.0 | 0.00 | 0.14 | 0.14 | 94 | 1017.4 |
| 20260902111503 | 60 | 185 | 2.6 | 7.0 | 0.00 | 0.14 | 0.14 | 94 | 1017.4 |
| 20260902111003 | 60 | 188 | 2.6 | 7.0 | 0.00 | 0.14 | 0.14 | 92 | 1017.4 |
| 20260902110503 | 61 | 197 | 2.6 | 6.1 | 0.00 | 0.14 | 0.14 | 91 | 1017.4 |
| 20260902110007 | 61 | 194 | 2.6 | 6.1 | 0.00 | 0.14 | 0.14 | 91 | 1017.4 |
| 20260902105504 | 60 | 182 | 1.7 | 6.1 | 0.00 | 0.14 | 0.14 | 92 | 1017.4 |
| 20260902105004 | 60 | 173 | 1.7 | 6.1 | 0.00 | 0.14 | 0.14 | 93 | 1017.4 |
| 20260902104711 | 60 | 167 | 2.6 | 6.1 | 0.00 | 0.14 | 0.14 | 92 | 1017.4 |
| 20260902104003 | 60 | 172 | 2.6 | 6.1 | 0.00 | 0.14 | 0.14 | 93 | 1017.4 |
| 20260902103503 | 60 | 166 | 2.6 | 7.0 | 0.00 | 0.14 | 0.14 | 94 | 1017.4 |
| 20260902103004 | 59 | 163 | 2.6 | 7.0 | 0.00 | 0.14 | 0.14 | 94 | 1017.4 |
| 20260902102503 | 59 | 160 | 2.6 | 7.0 | 0.01 | 0.14 | 0.14 | 96 | 1017.4 |
| 20260902102003 | 59 | 150 | 1.7 | 7.0 | 0.01 | 0.14 | 0.14 | 96 | 1017.4 |
| 20260902101711 | 59 | 140 | 1.7 | 5.2 | 0.01 | 0.14 | 0.14 | 97 | 1017.4 |
| 20260902101211 | 59 | 159 | 1.7 | 5.2 | 0.02 | 0.14 | 0.14 | 97 | 1017.4 |
| 20260902100503 | 58 | 151 | 2.6 | 7.8 | 0.03 | 0.14 | 0.14 | 97 | 1017.4 |
| 20260902100004 | 58 | 140 | 2.6 | 5.2 | 0.03 | 0.14 | 0.14 | 97 | 1017.4 |
| 20260902095503 | 58 | 145 | 1.7 | 7.8 | 0.03 | 0.14 | 0.14 | 98 | 1017.4 |
| 20260902095210 | 58 | 145 | 2.6 | 7.8 | 0.03 | 0.14 | 0.14 | 97 | 1017.4 |
| 20260902094711 | 58 | 142 | 2.6 | 7.8 | 0.03 | 0.14 | 0.14 | 98 | 1017.4 |
| 20260902094003 | 57 | 141 | 2.6 | 7.8 | 0.03 | 0.14 | 0.14 | 98 | 1017.4 |
| 20260902093711 | 57 | 137 | 2.6 | 7.8 | 0.03 | 0.14 | 0.14 | 98 | 1017.4 |
| 20260902093003 | 57 | 135 | 1.7 | 6.1 | 0.04 | 0.13 | 0.13 | 98 | 1017.4 |
| 20260902092503 | 57 | 145 | 1.7 | 5.2 | 0.04 | 0.13 | 0.13 | 98 | 1017.4 |
| 20260902092004 | 57 | 155 | 1.7 | 4.3 | 0.04 | 0.13 | 0.13 | 98 | 1017.4 |
| 20260902091504 | 57 | 152 | 1.7 | 5.2 | 0.03 | 0.12 | 0.12 | 98 | 1017.4 |
| 20260902091003 | 57 | 155 | 1.7 | 5.2 | 0.02 | 0.11 | 0.11 | 98 | 1017.4 |